FW0515 Weather Reports


time (UTC)temp
C
wind
direction
speed
KPH
gust
KPH
rain 1hr
cm
rain 24hr
cm
rain mn
cm
humidity
%
barometer
mb
20260505053100 13 359 0.0 0.0 0.00 0.00 0.00 76 1009.9
20260505051559 13 359 0.0 0.0 0.00 0.00 0.00 74 1009.9
20260505041604 14 350 0.0 0.0 0.00 0.00 0.00 70 1009.8
20260505040051 14 359 0.0 0.0 0.00 0.00 0.00 68 1009.8
20260505034551 15 359 0.0 0.0 0.00 0.00 0.00 67 1009.8
20260505033050 15 359 0.0 0.0 0.00 0.00 0.00 65 1009.8
20260505031550 15 359 0.0 0.0 0.00 0.00 0.00 64 1009.9
20260505030058 15 11 0.0 0.0 0.00 0.00 0.00 63 1009.9
20260505024550 15 12 0.0 0.0 0.00 0.00 0.00 62 1009.8
20260505023048 15 10 0.0 0.0 0.00 0.00 0.00 61 1010.0
20260505021554 16 10 0.0 0.0 0.00 0.00 0.00 59 1010.1
20260505020056 16 8 0.0 0.0 0.00 0.00 0.00 59 1010.1
20260505014547 16 36 0.0 0.0 0.00 0.00 0.00 59 1009.9
20260505013048 16 33 0.0 0.0 0.00 0.00 0.00 57 1009.9
20260505011547 17 33 0.0 0.0 0.00 0.00 0.00 56 1009.7
20260505010105 17 31 0.0 0.0 0.00 0.00 0.00 55 1009.5
20260505004546 17 30 0.0 0.0 0.00 0.00 0.00 54 1009.4
20260505003050 17 23 0.0 0.0 0.00 0.00 0.00 54 1009.3
20260505001545 18 28 0.0 0.0 0.00 0.00 0.00 52 1009.2
20260505000052 18 26 0.0 1.6 0.00 0.00 0.00 51 1009.0
20260504234544 19 359 0.0 0.0 0.00 0.00 0.00 50 1009.0
20260504233050 19 359 0.0 0.0 0.00 0.00 0.00 50 1009.1
20260504231543 19 359 0.0 0.0 0.00 0.00 0.00 51 1009.0
20260504224558 20 359 0.0 0.0 0.00 0.00 0.00 48 1009.0
20260504223042 20 359 0.0 0.0 0.00 0.00 0.00 46 1009.0
20260504221542 20 359 0.0 0.0 0.00 0.00 0.00 47 1009.0
20260504220050 20 359 0.0 0.0 0.00 0.00 0.00 44 1009.1
20260504214544 21 359 0.0 0.0 0.00 0.00 0.00 44 1009.3
20260504213040 21 359 0.0 0.0 0.00 0.00 0.00 43 1009.3
20260504211538 21 359 0.0 0.0 0.00 0.00 0.00 42 1009.3
20260504210052 22 231 0.0 0.0 0.00 0.00 0.00 41 1009.3
20260504204545 23 315 0.0 0.0 0.00 0.00 0.00 37 1009.3
20260504203039 24 4 0.0 0.0 0.00 0.00 0.00 37 1009.4
20260504201536 23 298 0.0 0.0 0.00 0.00 0.00 37 1009.6
20260504200048 23 345 0.0 0.0 0.00 0.00 0.00 37 1009.7
20260504194532 24 221 0.0 0.0 0.00 0.00 0.00 37 1010.0
20260504193030 24 314 0.0 1.6 0.00 0.00 0.00 37 1010.2
20260504191530 25 15 0.0 0.0 0.00 0.00 0.00 35 1010.3
20260504190028 23 213 0.0 1.6 0.00 0.00 0.00 37 1010.4
20260504184534 24 308 0.0 0.0 0.00 0.00 0.00 35 1010.6
20260504183032 24 56 0.0 0.0 0.00 0.00 0.00 34 1010.8
20260504181524 23 54 0.0 0.0 0.00 0.00 0.00 35 1011.0
20260504180022 24 206 0.0 0.0 0.00 0.00 0.00 36 1011.2
20260504174519 24 4 0.0 0.0 0.00 0.00 0.00 34 1011.4
20260504173018 24 250 0.0 0.0 0.00 0.00 0.00 35 1011.7
20260504171515 23 222 0.0 0.0 0.00 0.00 0.00 36 1011.8
20260504081552 6 359 0.0 0.0 0.00 0.00 0.00 83 1014.4